Terminal Aerodrome Forecast
Issued by NWS Cheyenne, WY

Home | Current Version | Previous Version | Text Only | Print | Product List | Glossary On
Versions: 1 2 3 4 5 6 7 8 9 10 11 12 13 14 15 16 17 18 19 20 21 22 23 24 25 26 27 28 29 30 31 32 33 34 35 36 37
000
FTUS45 KCYS 052320
TAFCYS
TAF
KCYS 052320Z 0600/0624 30007KT P6SM SCT200
     FM060600 28015G25KT P6SM BKN200=

USA.gov is the U.S. government's official web portal to all federal, state and local government web resources and services.